"Pseudo-MPEC" for C075PZ2

Created 2019 Feb 13 5:18:40 UT using Find_Orb

Click here for an explanation of pseudo-MPECs

 
 Astrometry: 
     C075PZ2  C2019 02 11.43441 13 25 13.76 +11 39 27.3    ~2BBI 19.6 GVNEOCPG96
     C075PZ2  C2019 02 11.43954 13 25 15.05 +11 37 26.4    ~2BBI 19.6 GVNEOCPG96
     C075PZ2  C2019 02 11.44472 13 25 16.35 +11 35 22.3    ~2BBI 19.5 GVNEOCPG96
     C075PZ2  C2019 02 11A8]fj?Vlm0OW9Z:;0i.lgZAstrometryDAj@3Ob8o^PRJ@rZ2?jwV06
     C075PZ2  C2019 02 11-,!gPw1J0:3H/qxAsh_-F!*PRON8c[yeO3TL'gN7^-Yyu59(\:g2V06
     C075PZ2  C2019 02 11^ERg;@AgGbredacted;o8FOEZO@oB#Q6j=]`XB@bZ?:!ZZw!\_ptV06
     C075PZ2  C2019 02 115qqAaa^DHpfhXbMB-SDC8nxnlrC`.nX)V?AA8AdJuLwQn_*l(wauV06
     C075PZ2 EC2019 02 12!e_1*Z2r-jw(N4dgWJ;r$k'Kclick94XI6CbG'B3-otwlWmtkXb/204
     C075PZ2 HC2019 02 12v;/1sX!tDj+1d]#APx2b:v+!pKw24b+F=H@?F\/QnthKo?#\[=Xg204
     C075PZ2  C2019 02 12.47805 13 32 28.65 +06 22 25.5    ~2CC3 20.1 GVNEOCPG96
     C075PZ2  C2019 02 12.47829 13 32 28.68 +06 22 21.1    ~2CC3 19.6 GVNEOCPG96
     C075PZ2  C2019 02 12.47875 13 32 28.69 +06 22 15.6    ~2CC3 19.4 GVNEOCPG96
     C075PZ2 KC2019 02 12LLZ1rwY8qYNeBTSHJLK`.Cuf+ZC5`IIrAG+3e;xP8S]`W01=T5mu474
     C075PZ2 KC2019 02 12@HhaIsNA^i?h'LLA)6STai!6cdFZ=T?*;h#C/bhereg(*nUV68FC474
     C075PZ2 KC2019 02 12@u4]7iA^DD\-`I5kqD!a7H^*C@XLtxG/[8R7Yj[WLBru1=G0r.Gt474
     C075PZ2 KC2019 02 13ScchU;Y4+nE26qa!h.1a=X[0=XTCgpCt3,h!uV`iUrYMZ[;forhlL01
     C075PZ2 KC2019 02 13p#?8sb2,HOtI$P0n`('3(_/+DhwndmK*_EFr+I!Zr%d\MJ?U7[q@L01
     C075PZ2 KC2019 02 13gAI8%/7K'wt\1Gau)5D78oW2*\+,^rM.eR=VXx-,Z-u:kd:m.Q+XL01
     C075PZ2 KC2019 02 13^PPF;(=K:oY!Owb$kSi_!Qk`/TXKexplanationS\tk2J7',T,!IL01

Station data:
(204) Schiaparelli Observatory  (N45.867933 E8.770800)  Italy.  Observer L.
   Buzzi. 0.60-m f/4.64 Newtonian + CCD.
(474) Mount John Observatory, Lake Tekapo  (S43.987388 E170.464960)  New
   Zealand.  Observers A. C. Gilmore, P. M. Kilmartin. Measurer P. M.
   Kilmartin. 1.0-m f/7.7 reflector + CCD.
(G96) Mt. Lemmon Survey  (N32.442754 W110.788720)  US/Arizona.  Observers B.
   M. Africano, E. J. Christensen, G. A. Farneth, D. C. Fuls, A. R. Gibbs, A.
   D. Grauer, H. Groeller, J. A. Johnson, R. A. Kowalski, S. M. Larson, G. J.
   Leonard, R. L. Seaman, F. C. Shelly. 1.5-m reflector + 10K CCD.
(L01) Višnjan Observatory, Tičan  (N45.290900 E13.749300)  Croatia.
   Observers K. Korlević, E. Pettarin. Measurer E. Pettarin. 1.0-m f/2.9
   reflector + CCD.
(V06) Catalina Sky Survey-Kuiper  (N32.416847 W110.732550)  US/Arizona.
   Observers B. M. Africano, E. J. Christensen, G. A. Farneth, D. C. Fuls, A.
   R. Gibbs, A. D. Grauer, H. Groeller, J. A. Johnson, R. A. Kowalski, S. M.
   Larson, G. J. Leonard, R. L. Seaman, F. C. Shelly. 1.55-m reflector + CCD.

Orbital elements:  C075PZ2
   Perihelion 2019 Jan 29.799194 +/- 0.000811 TT = 19:10:50 (JD 2458513.299194)
Epoch 2019 Feb 13.0 TT = JDT 2458527.5   Earth MOID: 0.0007   Ma: 0.0039
M   6.64297690 +/- 0.0028           (J2000 ecliptic)          AutoNEOCP
n   0.46778872 +/- 0.000181         Peri.   11.33085 +/- 0.018
a   1.64349940 +/- 0.000423         Node   116.18864 +/- 0.018
e   0.4020739 +/- 0.000154          Incl.    0.40660 +/- 0.00025
P   2.11/769.56d           H 27.8   G  0.15   U  7.0  
q 0.98269102 +/- 1.59e-6    Q 2.30430777 +/- 0.000847
From 19 observations 2019 Feb. 11-13 (40.0 hr); mean residual 0".34
Residuals in arcseconds: 
190211 G96  .29+  1.1-    190212 204  .09+  .07-    190212 474  .27-  .63+    
190211 G96  .03+  .46+    190212 204  .25-  .40-    190213 L01  .06-  .05+    
190211 G96  .02-  .21-    190212 G96  .16+  .69+    190213 L01  .05+  .04+    
190211 V06  .14-  .37+    190212 G96  .36+  .42-    190213 L01  .01+  .03+    
190211 V06  .06-  .47+    190212 G96  .03+  .39+    190213 L01  .16+  .14-    
190211 V06  .17+  .02-    190212 474  .37+  .34-    
190211 V06  .20-  .18+    190212 474  .52-  .42-    

Ephemerides (geocentric):
Date (UTC) HH   RA              Dec         delta   r     elong  mag " sig PA
---- -- -- --  -------------   -----------  ------ ------ -----  --- ---- ---
2019 02 13 05  13 35 43.664   +04 05 02.14  .01496 0.9953 122.4 20.8 .095 149
2019 02 13 06  13 35 52.932   +03 58 11.10  .01509 0.9954 122.3 20.8 .099 149
2019 02 13 07  13 36 02.034   +03 51 27.00  .01522 0.9955 122.3 20.8 .103 149
2019 02 13 08  13 36 10.974   +03 44 49.66  .01535 0.9956 122.3 20.8 .106 149
2019 02 13 09  13 36 19.754   +03 38 18.93  .01548 0.9956 122.3 20.8 .110 149
2019 02 13 10  13 36 28.381   +03 31 54.64  .01561 0.9957 122.2 20.9 .114 149
2019 02 13 11  13 36 36.856   +03 25 36.64  .01573 0.9958 122.2 20.9 .118 149
2019 02 13 12  13 36 45.184   +03 19 24.78  .01586 0.9958 122.2 20.9 .122 149
2019 02 13 13  13 36 53.368   +03 13 18.91  .01599 0.9959 122.2 20.9 .126 149
2019 02 13 14  13 37 01.413   +03 07 18.90  .01612 0.9960 122.2 20.9 .130 150
2019 02 13 15  13 37 09.320   +03 01 24.60  .01625 0.9961 122.2 21.0 .134 150
2019 02 13 16  13 37 17.093   +02 55 35.89  .01638 0.9961 122.1 21.0 .138 150
2019 02 13 17  13 37 24.736   +02 49 52.64  .01651 0.9962 122.1 21.0 .142 150
2019 02 13 18  13 37 32.252   +02 44 14.72  .01663 0.9963 122.1 21.0 .146 150
2019 02 13 19  13 37 39.642   +02 38 42.02  .01676 0.9964 122.1 21.0 .150 150
2019 02 13 20  13 37 46.911   +02 33 14.41  .01689 0.9964 122.1 21.0 .154 150
2019 02 13 21  13 37 54.061   +02 27 51.78  .01702 0.9965 122.1 21.1 .158 150
2019 02 13 22  13 38 01.094   +02 22 34.02  .01715 0.9966 122.1 21.1 .162 150
2019 02 13 23  13 38 08.014   +02 17 21.03  .01728 0.9967 122.1 21.1 .166 150
2019 02 14 00  13 38 14.822   +02 12 12.70  .01741 0.9967 122.1 21.1 .170 150
2019 02 14 01  13 38 21.521   +02 07 08.93  .01754 0.9968 122.1 21.1 .174 150
2019 02 14 02  13 38 28.114   +02 02 09.62  .01767 0.9969 122.0 21.1 .178 150
2019 02 14 03  13 38 34.602   +01 57 14.67  .01779 0.9970 122.0 21.2 .181 151
2019 02 14 04  13 38 40.988   +01 52 24.00  .01792 0.9970 122.0 21.2 .185 151
2019 02 14 05  13 38 47.274   +01 47 37.52  .01805 0.9971 122.0 21.2 .189 151
2019 02 14 06  13 38 53.463   +01 42 55.12  .01818 0.9972 122.0 21.2 .193 151
2019 02 14 07  13 38 59.555   +01 38 16.74  .01831 0.9973 122.0 21.2 .197 151
2019 02 14 08  13 39 05.554   +01 33 42.28  .01844 0.9974 122.0 21.2 .201 151
2019 02 14 09  13 39 11.461   +01 29 11.68  .01857 0.9974 122.0 21.2 .205 151
2019 02 14 10  13 39 17.278   +01 24 44.83  .01870 0.9975 122.0 21.3 .209 151
2019 02 14 11  13 39 23.007   +01 20 21.69  .01883 0.9976 122.0 21.3 .213 151
2019 02 14 12  13 39 28.649   +01 16 02.15  .01896 0.9977 122.0 21.3 .217 151
2019 02 14 13  13 39 34.207   +01 11 46.16  .01909 0.9977 122.0 21.3 .220 151
2019 02 14 14  13 39 39.681   +01 07 33.65  .01922 0.9978 122.0 21.3 .224 152
2019 02 14 15  13 39 45.074   +01 03 24.54  .01935 0.9979 122.0 21.3 .228 152
2019 02 14 16  13 39 50.387   +00 59 18.77  .01948 0.9980 122.0 21.3 .232 152
2019 02 14 17  13 39 55.622   +00 55 16.28  .01961 0.9981 122.0 21.4 .236 152
2019 02 14 18  13 40 00.780   +00 51 16.99  .01974 0.9981 122.0 21.4 .239 152
2019 02 14 19  13 40 05.863   +00 47 20.85  .01986 0.9982 122.0 21.4 .243 152
2019 02 14 20  13 40 10.872   +00 43 27.80  .01999 0.9983 122.0 21.4 .247 152
2019 02 14 21  13 40 15.808   +00 39 37.78  .02012 0.9984 122.0 21.4 .250 152
2019 02 14 22  13 40 20.673   +00 35 50.73  .02025 0.9985 122.1 21.4 .254 152
2019 02 14 23  13 40 25.469   +00 32 06.60  .02038 0.9985 122.1 21.4 .258 152
2019 02 15 00  13 40 30.195   +00 28 25.32  .02051 0.9986 122.1 21.5 .261 152
2019 02 15 01  13 40 34.855   +00 24 46.86  .02064 0.9987 122.1 21.5 .265 152
2019 02 15 02  13 40 39.448   +00 21 11.15  .02077 0.9988 122.1 21.5 .268 152
2019 02 15 03  13 40 43.976   +00 17 38.14  .02090 0.9989 122.1 21.5 .272 152
2019 02 15 04  13 40 48.440   +00 14 07.80  .02103 0.9989 122.1 21.5 .275 153